Lapse_Rate
7.6 7.6 7.2 6.9 6.6 6.6 6.6 6.1 5.7 5.5 5.4 5.7 5.6 5.5 5.4 5.5 5.5 5.6 5.6 5.7 5.8 5.8 5.9 6.0 5.8 5.9 5.9 5.7 5.5 5.5 5.4 5.5 5.8 5.9 5.9 5.5 5.8 5.9 5.5 5.5 5.3 4.9 5.3
7.1 7.3 6.8 7.0 6.3 6.4 6.3 6.0 5.6 5.5 5.4 5.4 5.4 5.4 5.4 5.2 5.4 5.4 5.5 5.6 5.6 5.7 5.8 5.7 5.6 5.9 6.0 5.9 5.9 5.7 5.6 5.5 5.8 6.1 5.7 5.5 5.5 5.8 5.7 5.8 5.6 5.3 5.0
7.4 7.7 6.9 6.2 6.0 6.1 6.3 6.3 5.9 5.6 5.6 5.4 5.4 5.5 5.5 5.3 5.3 5.3 5.3 5.4 5.5 5.6 5.8 5.7 5.9 6.1 6.2 6.1 6.0 6.0 5.9 5.8 5.8 6.2 5.8 5.4 5.3 5.5 5.7 5.9 5.8 5.5 5.4
7.3 7.3 6.8 6.2 6.1 6.3 6.3 6.0 5.9 5.7 5.7 5.8 5.8 5.9 5.8 5.5 5.3 5.4 5.5 5.6 5.7 6.0 6.0 6.0 6.4 6.4 6.3 6.5 6.6 6.3 6.3 6.2 6.0 5.9 6.0 5.5 5.4 5.1 5.7 5.8 5.8 5.6 5.5
7.2 7.0 6.9 6.5 6.4 6.2 6.1 6.0 5.8 5.6 5.6 5.7 5.9 6.0 5.8 5.5 5.5 5.7 5.8 5.9 5.9 6.2 6.3 6.3 6.4 6.5 6.6 6.6 6.8 6.7 6.5 6.4 6.4 6.0 6.0 5.7 5.4 5.3 5.5 5.7 5.7 5.4 5.8
7.1 7.2 6.9 6.9 6.8 6.7 6.7 6.6 5.6 5.7 5.9 5.9 5.7 5.9 5.7 5.9 5.8 5.9 6.0 6.2 6.2 6.3 6.5 6.6 6.6 6.5 6.6 6.7 6.8 6.7 6.6 6.4 6.3 6.1 5.9 6.0 5.5 5.5 5.6 5.6 5.7 5.4 5.6
6.4 6.6 6.3 6.6 6.4 6.5 6.3 6.4 6.2 5.8 5.9 5.9 5.9 5.7 5.6 5.5 5.6 5.7 6.2 6.3 6.4 6.7 6.6 6.7 6.7 6.7 6.7 6.6 6.6 6.5 6.4 6.5 6.4 6.2 5.9 5.9 5.7 5.3 5.8 5.7 5.5 5.3 5.0
6.2 6.4 5.9 6.1 5.9 5.6 5.9 5.4 5.7 5.7 6.0 5.9 5.6 5.7 5.5 5.5 6.0 6.2 6.3 6.4 6.7 6.6 6.7 6.6 6.6 6.6 6.5 6.5 6.4 6.2 6.1 6.1 6.1 6.2 6.0 5.9 5.9 5.5 5.3 5.8 5.5 5.1 5.4
6.3 6.2 6.4 6.4 5.9 5.9 5.2 5.8 6.0 5.7 5.6 5.4 5.3 5.5 5.7 5.8 5.8 6.1 6.2 6.2 6.5 6.5 6.6 6.7 6.7 6.5 6.3 6.4 6.5 6.4 6.2 6.3 6.3 6.2 6.1 5.9 6.0 5.9 5.5 5.6 5.4 5.8 5.5
6.6 6.5 5.3 5.5 5.5 5.9 5.5 6.0 5.6 5.6 5.7 5.4 5.4 5.2 5.1 5.5 5.9 6.2 6.3 6.4 6.6 6.6 6.6 6.6 6.6 6.6 6.2 6.3 6.5 6.4 6.3 6.3 6.2 6.1 6.2 6.3 6.1 5.8 5.4 5.6 5.7 5.7 6.0
6.4 5.5 4.7 5.5 4.8 5.2 5.1 5.4 5.7 5.5 5.3 5.3 5.4 5.5 5.9 5.9 6.0 6.1 6.2 6.3 6.3 6.3 6.3 6.3 6.2 6.3 6.1 6.0 6.2 6.3 6.2 6.2 6.1 6.1 5.7 6.1 6.2 6.1 5.6 5.6 5.6 5.6 5.8
5.8 5.2 4.6 5.1 4.9 5.1 5.5 5.7 5.3 5.3 5.6 5.8 5.9 6.0 6.0 5.8 5.8 6.0 6.2 6.3 6.2 6.2 6.2 5.9 5.8 5.7 5.6 5.5 5.7 5.7 5.9 6.1 6.1 6.0 6.0 5.7 5.8 5.8 5.9 5.8 5.8 5.8 6.1
5.1 4.8 4.9 5.3 5.3 5.0 5.5 5.6 5.8 5.9 5.9 5.6 5.5 5.9 6.0 6.1 6.2 6.3 6.3 6.3 6.3 6.3 6.3 6.1 6.1 6.0 5.6 5.4 5.3 5.4 5.6 5.8 5.9 5.9 5.9 5.6 5.6 5.5 5.5 5.7 5.8 5.8 5.7
4.7 4.8 4.9 5.3 5.6 5.0 4.7 5.3 5.5 5.3 5.0 5.4 5.9 6.0 6.1 6.2 6.2 6.2 6.0 5.9 5.9 6.0 6.1 6.3 6.4 6.0 5.7 5.4 5.3 5.1 5.3 5.6 5.9 5.8 5.7 5.6 5.5 5.5 5.3 5.3 5.3 5.5 6.1
5.4 5.8 5.6 5.4 5.3 5.6 5.9 5.3 4.8 4.8 5.3 5.7 5.7 5.8 6.1 6.0 5.9 6.0 5.9 5.8 5.7 5.9 6.1 6.2 6.3 6.4 5.9 5.5 5.4 5.2 5.2 5.3 5.7 5.8 5.5 5.4 5.3 5.3 5.3 5.3 5.1 5.1 5.6
5.6 5.7 5.6 5.4 5.2 5.0 4.9 4.9 5.0 5.2 5.4 5.2 5.4 5.7 5.7 5.6 5.7 5.8 5.8 5.8 5.8 5.8 6.0 6.3 6.4 6.3 5.9 5.4 5.1 5.1 5.3 5.3 5.5 5.6 5.5 5.3 5.1 5.1 5.1 5.2 5.1 5.0 5.3
6.0 6.0 6.0 5.8 5.5 5.4 5.4 5.2 5.3 5.1 4.9 5.2 5.2 5.5 5.5 5.5 5.6 5.6 5.7 5.8 5.8 5.9 5.9 6.1 6.3 6.1 5.6 5.2 4.9 4.9 5.1 5.3 5.5 5.6 5.5 5.2 5.0 4.9 5.0 5.0 5.0 4.9 5.0
5.8 5.6 5.5 5.6 5.5 5.2 5.2 5.2 5.1 5.2 5.4 5.4 5.4 5.7 5.8 5.7 5.6 5.7 5.8 5.9 5.8 5.9 5.9 6.0 5.9 5.8 5.3 5.0 4.7 4.8 5.0 5.2 5.4 5.5 5.5 5.2 4.9 4.7 4.7 4.8 4.8 4.9 4.8
5.6 5.5 5.5 5.5 5.4 5.3 4.9 4.9 5.0 5.0 5.2 5.5 5.7 5.7 5.8 5.6 5.5 5.5 5.6 5.7 5.8 6.0 5.8 5.7 5.6 5.4 5.0 4.7 4.6 4.6 4.8 5.0 5.1 5.1 5.2 5.1 4.8 4.6 4.6 4.6 4.7 4.9 5.0
5.8 5.7 5.3 4.8 4.7 4.9 5.0 5.1 5.1 5.1 5.1 5.3 5.6 5.8 5.8 5.7 5.5 5.5 5.6 5.6 5.7 5.7 5.6 5.5 5.3 5.0 4.8 4.5 4.4 4.4 4.6 4.7 4.6 4.7 4.7 4.8 4.8 4.7 4.6 4.5 4.5 4.8 4.9
4.9 4.7 4.9 4.9 5.1 5.3 5.3 5.3 5.3 5.1 5.1 5.2 5.5 5.6 5.5 5.5 5.4 5.5 5.3 5.3 5.4 5.4 5.4 5.2 5.1 4.8 4.7 4.5 4.0 3.9 4.0 4.1 4.2 4.4 4.5 4.6 4.7 4.8 4.8 4.7 4.7 4.8 4.9
5.0 5.2 5.4 5.7 5.7 5.5 5.5 5.4 5.2 5.1 5.0 5.2 5.4 5.5 5.4 5.2 5.0 5.0 5.0 5.0 5.1 5.2 5.2 5.1 4.9 4.8 4.6 4.6 4.3 3.8 3.7 3.7 3.9 4.2 4.4 4.5 4.6 4.6 4.8 4.9 4.9 4.9 5.0
5.3 5.5 5.7 5.9 5.9 5.8 5.6 5.4 5.2 5.1 5.0 5.1 5.3 5.4 5.4 5.3 5.1 5.0 5.0 5.0 4.9 4.9 5.0 4.9 4.9 4.8 4.7 4.5 4.4 4.1 3.7 3.5 3.5 3.8 4.1 4.5 4.7 4.6 4.7 4.8 4.9 4.9 4.9
5.5 5.7 5.9 6.0 6.0 5.9 5.7 5.6 5.4 5.1 5.0 5.1 5.1 5.2 5.3 5.3 5.3 5.2 5.0 4.9 4.9 4.8 4.8 4.8 4.8 4.8 4.9 4.6 4.5 4.2 3.7 3.3 3.3 3.4 3.8 4.2 4.8 4.8 4.7 4.8 4.8 4.9 4.8
5.6 5.7 5.8 5.9 5.9 5.9 5.8 5.7 5.6 5.2 5.0 5.0 5.0 5.1 5.1 5.2 5.2 5.1 5.0 4.9 4.9 4.8 4.7 4.8 4.9 4.9 4.9 4.7 4.4 4.1 3.6 3.2 3.2 3.3 3.5 3.9 4.4 4.9 5.0 5.0 4.9 4.9 4.9
5.7 5.8 5.8 5.8 5.8 5.8 5.7 5.7 5.7 5.5 5.2 5.0 4.9 5.0 5.1 5.2 5.2 5.1 5.1 5.0 4.5 4.5 4.6 4.8 5.1 5.0 4.9 4.4 4.0 3.9 3.6 3.2 3.1 3.1 3.6 4.0 4.3 4.7 4.8 5.0 5.2 5.2 4.9
Wind_Speed
10 9 11 8 8 8 8 6 7 7 6 6 6 6 6 6 6 5 5 4 5 5 5 6 6 5 4 4 4 3 3 3 3 5 3 7 7 11 7 8 7 7 5
12 13 11 10 7 8 8 7 7 7 6 6 5 6 6 5 6 6 5 5 5 5 5 6 6 7 6 5 4 5 4 3 2 8 5 5 7 7 4 3 1 2 6
11 12 11 9 8 7 8 7 7 7 7 5 6 5 5 4 5 5 4 3 4 4 5 6 6 6 6 4 4 5 4 4 3 3 4 3 4 4 5 3 2 0 3
11 11 11 11 9 7 7 6 6 6 7 6 5 5 5 4 3 3 3 3 4 4 5 5 6 6 6 6 6 6 6 5 4 3 3 3 2 4 3 5 3 2 1
13 11 11 8 7 6 5 5 5 5 5 5 5 5 4 1 0 3 3 3 3 4 4 5 5 9 14 11 4 6 5 3 4 4 3 2 3 4 5 6 4 4 2
11 11 9 8 8 7 6 6 5 5 5 6 5 3 2 1 2 5 3 1 3 4 4 5 5 9 9 14 13 11 7 4 4 2 2 2 3 2 3 4 6 2 3
6 6 9 10 9 7 7 7 6 5 3 4 3 3 2 2 3 4 6 2 4 5 6 3 4 4 6 6 10 10 9 8 5 4 4 4 4 4 4 2 3 6 1
13 13 14 12 10 8 8 6 6 3 4 3 4 3 3 4 7 7 6 5 4 6 6 2 2 4 4 6 6 7 6 4 6 5 4 4 5 7 5 4 5 6 4
14 12 12 11 10 5 5 5 3 4 3 3 3 5 5 6 10 9 7 6 5 5 5 3 2 3 4 7 5 6 7 3 9 10 10 13 18 17 12 5 6 5 3
13 11 10 9 8 5 3 3 3 1 2 4 5 5 8 6 11 9 6 3 4 4 8 5 9 6 6 3 3 3 5 5 8 11 9 6 9 12 16 5 4 5 3
12 12 8 8 7 3 2 2 0 2 2 3 5 5 5 6 7 10 11 4 5 6 6 6 4 5 7 7 5 4 3 4 7 6 6 6 6 5 5 5 5 4 4
12 10 6 6 2 3 1 1 1 3 4 6 4 5 4 6 8 9 10 9 8 5 6 4 3 5 6 9 7 9 9 8 3 5 5 6 6 5 5 5 8 8 9
6 4 1 3 2 3 4 5 3 4 4 4 4 4 4 5 4 9 11 12 11 4 4 5 9 10 10 9 10 10 9 3 4 4 6 6 5 5 5 4 7 11 11
6 4 5 4 5 3 1 2 4 5 4 4 5 6 6 6 5 5 5 5 8 7 8 6 6 10 11 10 9 8 6 5 6 6 5 6 6 3 4 3 3 3 3
6 4 6 5 5 6 5 3 4 5 3 6 6 6 7 7 7 9 9 6 6 8 10 7 7 7 6 6 6 6 6 6 5 6 5 7 6 5 5 3 3 3 2
6 5 4 1 2 4 5 5 6 10 13 12 12 9 7 10 13 14 12 13 13 13 7 6 7 7 7 7 7 6 6 8 6 7 5 5 6 5 5 3 3 3 3
5 2 3 4 6 4 5 6 10 9 11 9 10 12 13 14 16 17 18 18 16 14 7 7 7 7 7 7 7 6 6 6 6 6 5 5 6 5 4 5 3 3 3
1 3 1 3 4 5 6 6 5 7 8 8 7 11 12 14 16 18 18 15 8 6 6 7 6 6 7 7 6 6 6 6 5 5 6 5 6 6 4 4 3 3 2
6 6 6 6 7 6 5 5 5 6 7 8 8 8 8 12 14 14 13 6 7 7 6 6 7 7 6 6 6 6 6 5 5 5 5 5 5 4 2 3 3 4 2
6 14 9 4 4 4 5 6 6 6 7 7 7 8 8 9 8 8 6 6 6 6 6 6 6 7 7 6 7 6 6 6 5 5 5 5 4 4 4 5 4 3 3
4 4 5 4 4 4 5 6 7 7 7 7 8 8 11 8 8 7 7 6 6 7 7 7 6 7 7 7 6 6 6 6 6 6 5 4 4 4 4 4 4 4 3
3 4 4 4 4 5 5 6 6 7 8 8 9 8 11 6 7 7 7 7 6 7 7 8 6 7 7 7 6 6 6 5 5 4 3 4 4 4 4 4 4 4 3
4 5 5 5 4 5 5 5 7 8 8 9 9 9 8 8 8 8 8 8 7 7 7 7 7 7 7 6 8 6 6 6 4 2 3 3 4 4 4 4 5 3 2
4 5 5 6 6 6 6 7 7 10 9 9 9 9 9 9 9 9 9 8 8 7 7 7 7 9 9 7 10 11 9 9 6 5 6 4 3 4 5 4 3 4 4
5 5 5 6 6 6 7 8 8 8 9 9 9 9 10 10 10 9 9 8 8 8 9 8 8 9 11 11 11 14 13 13 11 9 5 5 6 5 4 2 3 3 5
5 5 4 5 6 7 7 8 9 9 10 10 10 10 10 10 10 10 9 9 8 9 11 8 8 13 13 11 13 16 16 15 12 11 7 5 5 4 4 3 6 3 6
Wind_Direction
149 134 134 136 141 138 130 135 121 112 99 83 78 66 46 37 32 36 9 50 53 33 20 17 357 345 343 334 325 324 325 336 301 304 298 311 329 317 316 350 28 78 57
160 145 145 139 151 141 142 137 134 124 111 111 98 80 48 26 22 22 57 52 47 30 12 5 344 342 330 324 323 312 294 299 290 301 312 329 320 313 316 332 60 138 148
153 152 149 150 163 162 150 144 137 129 129 126 113 106 91 31 55 63 69 60 48 38 9 353 329 328 318 312 309 300 289 297 287 277 297 304 305 354 341 309 305 27 113
164 161 159 167 166 159 145 146 141 139 139 137 129 107 80 68 84 68 76 51 25 15 347 323 309 312 298 295 295 288 300 309 294 288 291 296 315 331 336 330 305 269 143
173 170 171 156 136 119 120 133 126 118 116 109 99 82 56 103 105 111 82 62 23 347 324 299 313 315 322 318 303 286 295 291 304 303 297 306 320 345 354 339 312 272 194
174 178 150 128 108 105 93 80 77 89 97 95 85 80 79 303 132 98 89 298 303 308 302 307 320 335 351 340 333 326 278 260 283 274 286 295 297 315 351 337 323 285 276
107 97 104 95 93 90 93 93 82 58 64 81 64 17 346 342 161 336 321 273 265 273 274 301 327 338 359 326 335 352 349 359 350 353 357 14 340 356 318 299 310 319 57
92 93 83 82 79 82 88 88 91 71 43 12 357 355 329 299 286 285 286 284 269 272 265 232 259 310 340 358 346 344 349 14 9 10 16 334 318 314 302 279 278 282 275
86 80 89 98 85 63 94 86 73 64 9 318 303 328 310 285 278 268 306 281 272 267 302 209 227 255 321 359 344 339 325 346 354 339 321 318 318 317 311 321 320 337 310
89 84 79 60 78 64 21 72 48 64 284 276 310 283 286 285 284 285 292 278 276 290 299 290 212 244 237 274 309 308 317 329 333 328 326 309 296 299 300 264 270 280 286
80 80 94 90 89 83 280 73 53 266 282 299 264 274 284 289 297 310 304 289 285 287 287 287 278 272 259 233 251 252 252 291 309 305 295 291 295 281 283 280 260 240 255
73 69 74 90 154 133 121 58 301 307 307 279 283 281 270 273 281 285 293 290 280 273 274 268 254 263 253 252 262 245 262 299 301 298 296 287 282 284 276 276 279 276 258
74 140 74 69 58 13 20 351 315 301 287 303 283 316 307 308 286 287 290 292 285 255 233 242 244 254 259 267 257 254 271 269 288 281 282 274 260 259 283 276 281 280 276
107 28 71 37 28 12 275 329 357 350 301 291 341 323 307 298 294 293 286 297 304 290 279 278 271 263 255 251 255 256 249 254 258 264 268 271 268 264 269 258 263 282 257
76 49 50 34 10 5 356 317 265 253 320 348 321 302 302 299 306 342 334 321 310 299 299 280 272 263 256 250 249 251 245 233 245 255 258 284 272 264 263 262 256 278 265
48 34 16 9 5 358 342 334 323 355 348 328 330 342 333 327 336 325 323 319 312 306 292 279 270 259 256 259 256 256 251 249 246 251 241 258 278 264 263 267 241 244 256
51 5 351 10 19 344 352 347 356 348 339 326 316 316 318 318 321 323 317 312 306 304 277 269 268 265 264 263 259 255 255 249 248 250 242 243 265 272 262 261 251 248 272
126 37 31 1 6 348 348 343 326 326 332 329 332 320 315 319 315 319 311 310 309 294 283 286 267 268 269 263 260 258 257 250 247 245 240 236 243 247 252 267 281 226 261
20 14 7 358 346 338 307 299 315 319 324 322 331 324 315 312 313 308 302 295 303 303 293 298 294 278 276 267 262 256 248 247 249 243 235 236 242 230 235 266 282 284 288
6 7 3 322 305 306 309 334 330 326 328 330 323 323 323 323 324 321 316 313 307 299 294 288 292 292 278 277 274 251 253 249 242 240 238 235 240 235 236 235 242 252 255
354 314 308 326 322 318 331 339 332 331 329 322 320 317 307 309 309 309 312 304 306 302 302 288 289 286 285 283 262 278 245 250 243 242 234 223 228 233 237 237 251 246 246
336 331 332 337 325 329 323 326 333 330 325 320 321 317 312 305 308 306 306 306 294 293 291 290 288 284 282 283 262 259 269 252 240 224 224 213 224 234 246 242 251 253 237
354 348 342 334 320 320 332 331 332 327 324 322 321 319 321 315 312 312 307 304 299 291 293 291 281 282 283 280 283 254 251 251 253 238 243 250 212 231 237 240 252 245 250
352 350 344 342 346 344 338 334 327 326 322 322 322 319 319 315 311 309 307 305 302 295 287 284 282 276 275 270 268 264 247 246 235 232 239 266 239 220 236 227 218 237 253
353 350 351 347 335 335 334 336 329 325 325 323 321 321 317 316 314 310 309 307 302 298 293 289 286 277 274 264 259 264 246 241 240 238 240 244 257 252 238 223 245 259 256
352 350 345 343 340 337 336 332 327 324 323 322 319 317 315 314 313 313 313 308 304 304 300 291 283 282 280 263 254 256 283 229 228 240 228 236 244 235 217 230 258 264 275